GW5470 Weather Reports


time (UTC)temp
C
wind
direction
speed
KPH
gust
KPH
rain 1hr
cm
rain 24hr
cm
rain mn
cm
humidity
%
barometer
mb
20260508182409 21 170 8.0 9.7 0.00 0.00 0.00 37 1013.0
20260508181903 20 195 1.6 3.2 0.00 0.00 0.00 38 1013.3
20260508181400 20 185 1.6 4.8 0.00 0.00 0.00 38 1013.5
20260508180858 20 219 1.6 1.6 0.00 0.00 0.00 41 1013.3
20260508180354 20 177 3.2 3.2 0.00 0.00 0.00 39 1013.5
20260508175850 20 263 4.8 4.8 0.00 0.00 0.00 39 1013.7
20260508175347 20 187 3.2 6.4 0.00 0.00 0.00 39 1013.8
20260508174846 20 188 0.0 1.6 0.00 0.00 0.00 39 1014.0
20260508174343 21 198 4.8 6.4 0.00 0.00 0.00 42 1013.8
20260508173839 20 210 4.8 9.7 0.00 0.00 0.00 39 1013.8
20260508173336 20 155 6.4 6.4 0.00 0.00 0.00 43 1013.9
20260508172832 20 219 0.0 1.6 0.00 0.00 0.00 44 1014.0
20260508172329 20 154 3.2 4.8 0.00 0.00 0.00 43 1014.0
20260508171825 20 198 6.4 9.7 0.00 0.00 0.00 39 1014.0
20260508171321 20 203 3.2 4.8 0.00 0.00 0.00 40 1014.1
20260508170819 20 212 4.8 9.7 0.00 0.00 0.00 41 1014.3
20260508170317 19 246 3.2 4.8 0.00 0.00 0.00 40 1014.2
20260508165813 20 202 6.4 9.7 0.00 0.00 0.00 40 1014.8
20260508165311 18 227 1.6 1.6 0.00 0.00 0.00 39 1014.7
20260508164806 19 225 4.8 4.8 0.00 0.00 0.00 40 1015.0
20260508164303 19 223 3.2 4.8 0.00 0.00 0.00 42 1014.9
20260508163801 19 195 6.4 11.3 0.00 0.00 0.00 39 1015.0
20260508163259 18 215 4.8 4.8 0.00 0.00 0.00 40 1014.8
20260508162754 18 166 6.4 6.4 0.00 0.00 0.00 41 1015.1
20260508162251 20 191 9.7 12.9 0.00 0.00 0.00 40 1015.3
20260508161748 18 205 1.6 3.2 0.00 0.00 0.00 40 1015.3
20260508161245 20 350 12.9 17.7 0.00 0.00 0.00 37 1015.4
20260508160743 18 211 3.2 4.8 0.00 0.00 0.00 43 1015.5
20260508160242 17 196 6.4 9.7 0.00 0.00 0.00 43 1015.9
20260508155738 17 234 9.7 14.5 0.00 0.00 0.00 41 1015.8
20260508155235 18 176 1.6 1.6 0.00 0.00 0.00 42 1015.8
20260508154731 18 241 3.2 6.4 0.00 0.00 0.00 42 1015.8
20260508154229 17 352 4.8 6.4 0.00 0.00 0.00 43 1015.9
20260508153726 16 223 0.0 0.0 0.00 0.00 0.00 45 1015.9
20260508153223 17 218 3.2 3.2 0.00 0.00 0.00 44 1016.0
20260508152719 16 220 0.0 1.6 0.00 0.00 0.00 47 1015.9
20260508152215 16 155 1.6 3.2 0.00 0.00 0.00 43 1015.9
20260508151712 16 201 3.2 4.8 0.00 0.00 0.00 48 1016.0
20260508151208 16 304 3.2 4.8 0.00 0.00 0.00 42 1016.0
20260508150705 16 194 4.8 4.8 0.00 0.00 0.00 46 1016.1
20260508150202 16 203 3.2 3.2 0.00 0.00 0.00 45 1016.1
20260508145658 16 215 1.6 1.6 0.00 0.00 0.00 45 1016.1
20260508145154 16 304 8.0 9.7 0.00 0.00 0.00 44 1016.4
20260508144651 16 244 6.4 6.4 0.00 0.00 0.00 44 1016.3
20260508144149 16 223 1.6 1.6 0.00 0.00 0.00 45 1016.2
20260508143647 16 130 3.2 3.2 0.00 0.00 0.00 46 1016.3
20260508143143 17 189 6.4 9.7 0.00 0.00 0.00 44 1016.2
20260508142639 16 149 6.4 9.7 0.00 0.00 0.00 49 1016.1
20260508142136 15 212 1.6 1.6 0.00 0.00 0.00 52 1016.3
20260508141633 14 210 3.2 3.2 0.00 0.00 0.00 54 1016.1
20260508141131 13 213 1.6 1.6 0.00 0.00 0.00 56 1016.2
20260508140628 14 206 3.2 3.2 0.00 0.00 0.00 53 1016.3
20260508140125 14 204 3.2 4.8 0.00 0.00 0.00 50 1016.3
20260508135620 15 252 6.4 6.4 0.00 0.00 0.00 49 1016.2
20260508135116 14 196 3.2 3.2 0.00 0.00 0.00 51 1016.3
20260508134613 14 213 3.2 3.2 0.00 0.00 0.00 54 1016.0
20260508134110 13 195 3.2 3.2 0.00 0.00 0.00 55 1016.2
20260508133607 13 209 3.2 4.8 0.00 0.00 0.00 57 1016.3
20260508133104 13 218 0.0 1.6 0.00 0.00 0.00 58 1016.2
20260508132602 12 199 3.2 4.8 0.00 0.00 0.00 59 1016.3
20260508132059 12 206 3.2 3.2 0.00 0.00 0.00 61 1016.5
20260508131554 11 208 1.6 3.2 0.00 0.00 0.00 62 1016.6
20260508131051 11 192 3.2 3.2 0.00 0.00 0.00 67 1016.3
20260508130548 11 211 1.6 1.6 0.00 0.00 0.00 69 1016.6
20260508130044 10 204 0.0 1.6 0.00 0.00 0.00 71 1016.8
20260508125540 10 207 0.0 1.6 0.00 0.00 0.00 73 1016.6
20260508125038 9 205 1.6 1.6 0.00 0.00 0.00 74 1016.7
20260508124536 7 200 1.6 1.6 0.00 0.00 0.00 77 1016.6
20260508124033 7 200 0.0 0.0 0.00 0.00 0.00 80 1016.7
20260508123531 7 200 1.6 3.2 0.00 0.00 0.00 81 1016.6
20260508123027 7 200 1.6 1.6 0.00 0.00 0.00 81 1016.6
20260508122524 6 200 1.6 3.2 0.00 0.00 0.00 85 1016.6
20260508122021 6 204 0.0 0.0 0.00 0.00 0.00 89 1016.5
20260508121520 5 226 0.0 0.0 0.00 0.00 0.00 91 1016.5
20260508121017 5 226 0.0 0.0 0.00 0.00 0.00 95 1016.4
20260508120514 5 226 0.0 0.0 0.00 0.00 0.00 98 1016.6
20260508120013 4 226 0.0 0.0 0.00 0.00 0.00 99 1016.4
20260508115510 3 226 0.0 0.0 0.00 0.00 0.00 99 1016.4
20260508115006 3 227 0.0 0.0 0.00 0.00 0.00 99 1016.3
20260508114503 2 227 0.0 0.0 0.00 0.00 0.00 99 1016.4
20260508113959 1 227 0.0 0.0 0.00 0.00 0.00 99 1016.4
20260508113458 1 227 0.0 0.0 0.00 0.00 0.00 99 1016.4
20260508112954 1 227 0.0 0.0 0.00 0.00 0.00 99 1016.3
20260508112446 1 227 0.0 0.0 0.00 0.00 0.00 99 1016.3
20260508111942 1 227 0.0 0.0 0.00 0.00 0.00 99 1016.2
20260508111440 1 227 0.0 0.0 0.00 0.00 0.00 99 1016.1
20260508110937 0 227 0.0 0.0 0.00 0.00 0.00 99 1016.1
20260508110435 0 227 0.0 0.0 0.00 0.00 0.00 99 1016.1
20260508105934 0 227 0.0 0.0 0.00 0.00 0.00 99 1016.1
20260508105431 0 227 0.0 0.0 0.00 0.00 0.00 99 1016.1
20260508104928 0 227 0.0 0.0 0.00 0.00 0.00 99 1016.1
20260508104425 0 227 0.0 0.0 0.00 0.00 0.00 99 1016.2
20260508103921 0 227 0.0 0.0 0.00 0.00 0.00 99 1016.1
20260508103419 0 227 0.0 0.0 0.00 0.00 0.00 99 1016.0
20260508102916 0 227 0.0 0.0 0.00 0.00 0.00 99 1016.0
20260508102415 0 227 0.0 0.0 0.00 0.00 0.00 99 1016.0
20260508101911 0 227 0.0 0.0 0.00 0.00 0.00 99 1016.0
20260508101409 0 227 0.0 0.0 0.00 0.00 0.00 99 1015.8
20260508100905 0 227 0.0 0.0 0.00 0.00 0.00 99 1015.8
20260508100404 0 227 0.0 0.0 0.00 0.00 0.00 99 1015.8
20260508095859 0 227 0.0 0.0 0.00 0.00 0.00 99 1015.8
20260508095358 0 227 0.0 0.0 0.00 0.00 0.00 99 1015.8
20260508094854 0 227 0.0 0.0 0.00 0.00 0.00 99 1015.7
20260508094351 0 227 0.0 0.0 0.00 0.00 0.00 99 1015.8
20260508093848 0 227 0.0 0.0 0.00 0.00 0.00 99 1015.7
20260508093346 0 227 0.0 0.0 0.00 0.00 0.00 99 1015.8
20260508092843 0 227 0.0 0.0 0.00 0.00 0.00 98 1015.7
20260508092341 0 227 0.0 0.0 0.00 0.00 0.00 98 1015.6
20260508091839 0 227 0.0 0.0 0.00 0.00 0.00 98 1015.7
20260508091335 0 227 0.0 0.0 0.00 0.00 0.00 98 1015.7
20260508090833 0 227 0.0 0.0 0.00 0.00 0.00 98 1015.8
20260508090331 0 227 0.0 0.0 0.00 0.00 0.00 98 1015.8
20260508085831 0 227 0.0 0.0 0.00 0.00 0.00 98 1015.7
20260508085329 0 227 0.0 0.0 0.00 0.00 0.00 98 1015.7
20260508084825 0 227 0.0 0.0 0.00 0.00 0.00 98 1015.5
20260508084322 0 227 0.0 0.0 0.00 0.00 0.00 98 1015.8
20260508083819 0 227 0.0 0.0 0.00 0.00 0.00 98 1015.4
20260508083317 0 227 0.0 0.0 0.00 0.00 0.00 98 1015.4
20260508082816 0 227 0.0 0.0 0.00 0.00 0.00 98 1015.6
20260508082314 0 227 0.0 0.0 0.00 0.00 0.00 98 1015.7
20260508081811 0 227 0.0 0.0 0.00 0.00 0.00 98 1015.6
20260508081308 0 227 0.0 0.0 0.00 0.00 0.00 98 1015.5
20260508080805 0 227 0.0 0.0 0.00 0.00 0.00 98 1015.6
20260508080303 0 227 0.0 0.0 0.00 0.00 0.00 98 1015.4
20260508075759 0 227 0.0 0.0 0.00 0.00 0.00 98 1015.6
20260508075256 0 227 0.0 0.0 0.00 0.00 0.00 98 1015.5
20260508074754 0 227 0.0 0.0 0.00 0.00 0.00 98 1015.7
20260508074251 0 227 0.0 0.0 0.00 0.00 0.00 98 1015.5
20260508073748 1 227 0.0 0.0 0.00 0.00 0.00 98 1015.5
20260508073246 1 227 0.0 0.0 0.00 0.00 0.00 98 1015.4
20260508072742 0 227 0.0 0.0 0.00 0.00 0.00 98 1015.5
20260508072239 0 227 0.0 0.0 0.00 0.00 0.00 98 1015.6
20260508071736 0 227 0.0 0.0 0.00 0.00 0.00 98 1015.7
20260508071235 1 227 0.0 0.0 0.00 0.00 0.00 98 1015.5
20260508070732 1 227 0.0 0.0 0.00 0.00 0.00 98 1015.7
20260508070230 1 227 0.0 0.0 0.00 0.00 0.00 98 1015.7
20260508065727 1 228 0.0 1.6 0.00 0.00 0.00 98 1015.4
20260508065225 1 227 0.0 0.0 0.00 0.00 0.00 98 1015.6
20260508064722 1 227 0.0 0.0 0.00 0.00 0.00 98 1015.6
20260508064221 1 227 0.0 0.0 0.00 0.00 0.00 98 1015.7
20260508063718 1 227 0.0 0.0 0.00 0.00 0.00 98 1015.6
20260508063215 1 227 0.0 0.0 0.00 0.00 0.00 98 1015.6
20260508062713 1 227 0.0 0.0 0.00 0.00 0.00 98 1015.6
20260508062210 1 227 0.0 0.0 0.00 0.00 0.00 97 1015.6
20260508061707 1 227 0.0 0.0 0.00 0.00 0.00 97 1015.6
20260508061204 1 227 0.0 0.0 0.00 0.00 0.00 97 1015.6
20260508060702 1 227 0.0 0.0 0.00 0.00 0.00 98 1015.7
20260508060158 1 227 0.0 0.0 0.00 0.00 0.00 97 1015.7
20260508055653 1 227 0.0 0.0 0.00 0.00 0.00 97 1015.7
20260508055150 1 227 0.0 0.0 0.00 0.00 0.00 97 1015.8
20260508054647 1 227 0.0 0.0 0.00 0.00 0.00 97 1015.8
20260508054144 1 227 0.0 0.0 0.00 0.00 0.00 97 1015.9
20260508053641 2 227 0.0 0.0 0.00 0.00 0.00 97 1016.0
20260508053139 2 227 0.0 0.0 0.00 0.00 0.00 97 1015.9
20260508052636 2 227 0.0 0.0 0.00 0.00 0.00 97 1016.1
20260508052133 1 227 0.0 0.0 0.00 0.00 0.00 97 1015.9
20260508051629 1 227 0.0 0.0 0.00 0.00 0.00 97 1016.1
20260508051125 1 227 0.0 0.0 0.00 0.00 0.00 97 1016.1
20260508050621 2 227 0.0 0.0 0.00 0.00 0.00 97 1016.2
20260508050119 2 227 0.0 0.0 0.00 0.00 0.00 96 1016.1
20260508045614 2 227 0.0 0.0 0.00 0.00 0.00 96 1016.0
20260508045113 2 227 0.0 0.0 0.00 0.00 0.00 96 1016.0
20260508044609 2 227 0.0 0.0 0.00 0.00 0.00 96 1016.0
20260508044106 2 227 0.0 0.0 0.00 0.00 0.00 96 1015.9
20260508043602 2 227 0.0 0.0 0.00 0.00 0.00 96 1015.9
20260508043100 2 227 0.0 0.0 0.00 0.00 0.00 96 1016.0
20260508042556 2 227 0.0 0.0 0.00 0.00 0.00 96 1016.0
20260508042054 2 227 0.0 0.0 0.00 0.00 0.00 96 1016.0
20260508041550 2 227 0.0 0.0 0.00 0.00 0.00 96 1015.8
20260508041046 2 227 0.0 0.0 0.00 0.00 0.00 95 1015.8
20260508040543 2 227 0.0 0.0 0.00 0.00 0.00 95 1015.9
20260508040041 2 227 0.0 0.0 0.00 0.00 0.00 95 1015.8
20260508035537 2 227 0.0 0.0 0.00 0.00 0.00 95 1016.0
20260508035035 2 227 0.0 0.0 0.00 0.00 0.00 95 1015.7
20260508034532 2 227 0.0 0.0 0.00 0.00 0.00 94 1015.8
20260508034029 3 227 0.0 0.0 0.00 0.00 0.00 94 1015.8
20260508033527 3 227 0.0 0.0 0.00 0.00 0.00 94 1015.7
20260508033025 3 227 0.0 0.0 0.00 0.00 0.00 94 1015.9
20260508032521 3 227 0.0 0.0 0.00 0.00 0.00 93 1015.7
20260508032019 3 227 0.0 0.0 0.00 0.00 0.00 93 1015.8
20260508031516 3 227 0.0 0.0 0.00 0.00 0.00 92 1015.7
20260508031011 3 227 0.0 0.0 0.00 0.00 0.00 92 1015.7
20260508030508 3 227 0.0 0.0 0.00 0.00 0.00 91 1015.6
20260508030007 3 227 0.0 0.0 0.00 0.00 0.00 91 1015.9
20260508025502 3 227 0.0 0.0 0.00 0.00 0.00 90 1015.8
20260508024959 3 227 0.0 0.0 0.00 0.00 0.00 90 1015.8
20260508024455 4 227 0.0 0.0 0.00 0.00 0.00 89 1015.5
20260508023952 4 227 0.0 0.0 0.00 0.00 0.00 89 1015.6
20260508023448 4 227 0.0 0.0 0.00 0.00 0.00 88 1015.9
20260508022946 4 227 0.0 0.0 0.00 0.00 0.00 87 1015.8
20260508022441 5 227 0.0 0.0 0.00 0.00 0.00 86 1015.7
20260508021938 5 227 0.0 0.0 0.00 0.00 0.00 85 1015.5
20260508021435 5 227 0.0 0.0 0.00 0.00 0.00 85 1015.6
20260508020930 5 227 0.0 0.0 0.00 0.00 0.00 84 1015.8
20260508020429 5 227 0.0 0.0 0.00 0.00 0.00 83 1015.7
20260508015925 5 227 0.0 0.0 0.00 0.00 0.00 82 1015.6
20260508015423 5 227 0.0 0.0 0.00 0.00 0.00 81 1015.6
20260508014919 5 227 0.0 0.0 0.00 0.00 0.00 81 1015.6
20260508014417 6 227 0.0 0.0 0.00 0.00 0.00 79 1015.5
20260508013917 6 227 0.0 0.0 0.00 0.00 0.00 79 1015.3
20260508013414 6 227 0.0 0.0 0.00 0.00 0.00 77 1015.5
20260508012911 6 227 0.0 0.0 0.00 0.00 0.00 77 1015.3
20260508012408 6 227 0.0 0.0 0.00 0.00 0.00 76 1015.1
20260508011906 7 227 0.0 0.0 0.00 0.00 0.00 72 1015.1
20260508011404 7 227 0.0 0.0 0.00 0.00 0.00 73 1015.0
20260508010900 7 227 0.0 0.0 0.00 0.00 0.00 74 1015.1
20260508010358 7 227 0.0 0.0 0.00 0.00 0.00 74 1014.8
20260508005855 7 227 0.0 0.0 0.00 0.00 0.00 69 1014.8
20260508005351 8 227 0.0 0.0 0.00 0.00 0.00 68 1014.8
20260508004848 8 227 0.0 0.0 0.00 0.00 0.00 64 1014.9
20260508004344 8 227 0.0 0.0 0.00 0.00 0.00 61 1014.7
20260508003841 9 227 0.0 0.0 0.00 0.00 0.00 58 1014.7
20260508003338 10 227 0.0 0.0 0.00 0.00 0.00 59 1014.5
20260508002835 10 226 0.0 0.0 0.00 0.00 0.00 57 1014.4
20260508002332 10 226 0.0 0.0 0.00 0.00 0.00 58 1014.7
20260508001828 11 226 0.0 0.0 0.00 0.00 0.00 53 1014.4
20260508001324 11 226 0.0 0.0 0.00 0.00 0.00 49 1014.2
20260508000820 11 221 0.0 1.6 0.00 0.00 0.00 52 1014.3
20260508000319 12 224 0.0 0.0 0.00 0.00 0.00 47 1014.5
20260507235814 12 227 0.0 0.0 0.00 0.00 0.00 46 1014.3
20260507235311 12 223 0.0 0.0 0.00 0.00 0.00 47 1014.2
20260507234808 13 222 0.0 0.0 0.00 0.00 0.00 44 1014.2
20260507234305 13 205 1.6 1.6 0.00 0.00 0.00 42 1014.2
20260507233801 13 216 0.0 1.6 0.00 0.00 0.00 43 1014.0
20260507233259 13 228 1.6 1.6 0.00 0.00 0.00 41 1014.0
20260507232757 13 308 3.2 4.8 0.00 0.00 0.00 40 1014.0
20260507232253 13 219 1.6 3.2 0.00 0.00 0.00 40 1014.1
20260507231749 14 202 3.2 3.2 0.00 0.00 0.00 41 1013.8
20260507231246 14 20 6.4 9.7 0.00 0.00 0.00 40 1014.0
20260507230743 14 166 3.2 4.8 0.00 0.00 0.00 42 1014.0
20260507230241 15 355 4.8 6.4 0.00 0.00 0.00 44 1013.9
20260507225740 15 347 8.0 9.7 0.00 0.00 0.00 39 1014.1
20260507225237 15 227 1.6 3.2 0.00 0.00 0.00 40 1014.0
20260507224732 15 240 3.2 3.2 0.00 0.00 0.00 40 1014.0
20260507224229 15 212 1.6 3.2 0.00 0.00 0.00 40 1014.0
20260507223725 15 258 3.2 3.2 0.00 0.00 0.00 40 1013.8
20260507223222 16 324 8.0 11.3 0.00 0.00 0.00 37 1013.9
20260507222719 16 171 1.6 1.6 0.00 0.00 0.00 36 1013.8
20260507222215 16 269 4.8 6.4 0.00 0.00 0.00 36 1013.7
20260507221712 16 30 6.4 9.7 0.00 0.00 0.00 37 1013.7
20260507221208 15 335 3.2 6.4 0.00 0.00 0.00 39 1013.7
20260507220705 16 249 8.0 12.9 0.00 0.00 0.00 37 1013.8
20260507220204 16 1 8.0 14.5 0.00 0.00 0.00 37 1013.7
20260507215659 16 278 3.2 6.4 0.00 0.00 0.00 35 1013.6
20260507215157 15 209 3.2 3.2 0.00 0.00 0.00 35 1013.6
20260507214654 16 198 6.4 6.4 0.00 0.00 0.00 34 1013.5
20260507214150 17 225 3.2 4.8 0.00 0.00 0.00 34 1013.3
20260507213646 16 234 3.2 3.2 0.00 0.00 0.00 35 1013.3
20260507213144 16 315 6.4 9.7 0.00 0.00 0.00 33 1013.3
20260507212640 16 259 3.2 4.8 0.00 0.00 0.00 35 1013.4
20260507212136 16 27 6.4 11.3 0.00 0.00 0.00 35 1013.0
20260507211634 16 332 6.4 6.4 0.00 0.00 0.00 33 1013.0
20260507211129 16 326 3.2 4.8 0.00 0.00 0.00 33 1013.2
20260507210627 16 40 6.4 9.7 0.00 0.00 0.00 35 1013.0
20260507210123 16 6 11.3 14.5 0.00 0.00 0.00 36 1013.0
20260507205620 17 13 6.4 11.3 0.00 0.00 0.00 34 1013.0
20260507205116 17 196 6.4 6.4 0.00 0.00 0.00 31 1013.1
20260507204613 16 217 1.6 1.6 0.00 0.00 0.00 29 1012.9
20260507204110 16 195 8.0 9.7 0.00 0.00 0.00 29 1012.9
20260507203608 17 49 6.4 9.7 0.00 0.00 0.00 30 1012.9
20260507203105 17 352 12.9 17.7 0.00 0.00 0.00 31 1013.1
20260507202601 16 232 3.2 3.2 0.00 0.00 0.00 32 1012.8
20260507202057 16 86 3.2 4.8 0.00 0.00 0.00 34 1013.0
20260507201553 16 311 4.8 6.4 0.00 0.00 0.00 32 1013.0
20260507201049 16 14 8.0 11.3 0.00 0.00 0.00 32 1012.8
20260507200545 16 347 11.3 12.9 0.00 0.00 0.00 33 1013.1
20260507200041 17 323 3.2 4.8 0.00 0.00 0.00 34 1012.9
20260507195539 17 8 6.4 6.4 0.00 0.00 0.00 33 1013.0
20260507195036 16 277 3.2 3.2 0.00 0.00 0.00 35 1013.1
20260507194532 16 352 14.5 17.7 0.00 0.00 0.00 31 1013.2
20260507194029 16 47 6.4 9.7 0.00 0.00 0.00 34 1013.2
20260507193526 16 359 11.3 12.9 0.00 0.00 0.00 33 1013.3
20260507193023 16 10 9.7 12.9 0.00 0.00 0.00 33 1013.2
20260507192519 17 224 4.8 6.4 0.00 0.00 0.00 31 1013.3
20260507192016 17 166 11.3 12.9 0.00 0.00 0.00 31 1013.3
20260507191511 16 225 3.2 3.2 0.00 0.00 0.00 33 1013.3
20260507191008 16 7 4.8 9.7 0.00 0.00 0.00 32 1013.4
20260507190506 16 348 3.2 4.8 0.00 0.00 0.00 34 1013.5
20260507190005 16 227 9.7 12.9 0.00 0.00 0.00 34 1013.5
20260507185502 16 224 6.4 11.3 0.00 0.00 0.00 30 1013.7
20260507184958 16 95 6.4 9.7 0.00 0.00 0.00 30 1013.7
20260507184456 16 247 11.3 12.9 0.00 0.00 0.00 32 1013.3
20260507183954 16 14 3.2 4.8 0.00 0.00 0.00 36 1013.5
20260507183450 16 325 9.7 12.9 0.00 0.00 0.00 33 1013.6
20260507182947 16 272 6.4 9.7 0.00 0.00 0.00 34 1013.6